Location: Gaast
(52.9002°N, 5.8891°E)
Time: 12:31:14
(UTC+00:00)

ACS3 Solar Sail - Pass Details

Date: 21 January 2026
Orbit: 900 x 968 km, 97.2° (Epoch: 10 February)

Event Time Altitude Azimuth Distance (km) Brightness Sun altitude
Rises 04:13:52 0° 7° (N) 3,651 5.0 -29.8°
Reaches altitude 10° 04:17:06 10° 350° (N) 2,689 4.0 -29.3°
Enters shadow 04:17:16 11° 349° (NNW) 2,647 4.0 -29.3°
